Flag for U.S.A. Weather past 2 weeks in Des Moines, Iowa, U.S.A.

Now
42 °F

Overcast.


Feels Like: 33 °F
Forecast: 37 / 43 °F
Wind: 21 mph from South

Location: Des Moines International Airport

Current Time: Dec 21, 2014 at 2:15:10 PM

Latest Report: Dec 21, 2014 at 1:54 PM


Visibility: 10 mi

Pressure: 29.85 "Hg

Humidity: 76%

Dew point: 35 °F

Location of Des MoinesLocation

Historic Weather in Des Moines — Graph

°F

Des Moines temperature yesterday

Maximum temperature yesterday: 37 °F (at 11:54 PM)
Minimum temperature yesterday: 32 °F (at 12:54 AM)
Average temperature yesterday: 34 °F

Past Weeks' High & Low Weather Summary

 TemperatureHumidityPressure
High57 °F (Dec 13, 2:54 PM)93% (Dec 8, 12:54 AM)30.61 "Hg (Dec 8, 12:54 AM)
Low15 °F (Dec 17, 4:54 AM)45% (Dec 6, 2:54 PM)29.55 "Hg (Dec 15, 1:54 PM)
Average36 °F79%30.21 "Hg
* Reported Dec 6 12:54 PM — Dec 21 12:54 PM, Des Moines, Weather by CustomWeather, © 2014

Note: Actual official high and low records may vary slightly from our data, if they occured in-between our weather recording intervals... More about our weather records

Advertising

Des Moines weather history for previous 24 hours

 ConditionsComfort  
Time TempWeatherWind HumidityBarometerVisibility
12:54 PM
Dec 21
41 °FOvercast.15 mph80%29.89 "Hg10 mi
11:54 AM42 °FOvercast.16 mph76%29.93 "Hg10 mi
10:54 AM40 °FOvercast.17 mph80%29.96 "Hg9 mi
9:54 AM40 °FOvercast.N/A77%29.98 "Hg8 mi
8:54 AM39 °FOvercast.18 mph82%29.98 "Hg7 mi
7:54 AM39 °FOvercast.14 mph82%30.00 "Hg6 mi
6:54 AM38 °FOvercast.17 mph86%30.01 "Hg7 mi
5:54 AM38 °FMostly cloudy.12 mph86%30.03 "Hg7 mi
4:54 AM38 °FOvercast.13 mph86%30.03 "Hg7 mi
3:54 AM39 °FFog.12 mph86%30.05 "Hg6 mi
2:54 AM39 °FFog.10 mph86%30.07 "Hg6 mi
1:58 AM39 °FFog.12 mph89%30.06 "Hg3 mi
12:54 AM38 °FFog.9 mph93%30.10 "Hg1 mi
11:54 PM
Dec 20
37 °FFog.9 mph93%30.11 "Hg1 mi
10:54 PM36 °FFog.9 mph92%30.11 "Hg1 mi
9:54 PM36 °FFog.10 mph92%30.13 "Hg2 mi
9:02 PM36 °FDrizzle. Fog.9 mph89%30.12 "Hg3 mi
8:54 PM36 °FDrizzle. Fog.8 mph89%30.14 "Hg4 mi
7:54 PM36 °FFog.8 mph89%30.15 "Hg5 mi
6:54 PM36 °FFog.6 mph89%30.16 "Hg6 mi
5:54 PM36 °FDrizzle. Fog.7 mph89%30.16 "Hg3 mi
4:54 PM36 °FDrizzle. Fog.8 mph89%30.15 "Hg3 mi
3:54 PM36 °FFog.7 mph89%30.16 "Hg5 mi
3:04 PM36 °FFog.7 mph89%30.12 "Hg6 mi
Weather by CustomWeather, © 2014

See weather overviewHow to use our weather pages